Regional Weather Roundup
Issued by NWS

Home | Current Version | Previous Version | Text Only | Print | Product List | Glossary Off
Versions: 1 2 3 4 5 6 7 8 9 10 11 12 13 14 15 16 17 18 19 20 21 22 23 24 25 26 27 28

000
ASUS45 KCYS 101510
RWRWY

WYOMING REGIONAL WEATHER ROUNDUP
NATIONAL WEATHER SERVICE CHEYENNE WY
800 AM MST SUN DEC 10 2017

NOTE:  "FAIR" INDICATES FEW OR NO CLOUDS BELOW 12,000 FEET
WITH NO SIGNIFICANT WEATHER AND/OR OBSTRUCTIONS TO VISIBILITY.

WYZ001-101600-
YELLOWSTONE NATIONAL PARK

CITY           SKY/WX    TMP DP  RH WIND       PRES   REMARKS
LK YELLOWSTONE   N/A      3   1  91 CALM      30.60S
W YELLOWSTONE  NOT AVBL

$$
WYZ002>013-054>058-071-098>099-101600-
NORTHERN WYOMING

CITY           SKY/WX    TMP DP  RH WIND       PRES   REMARKS
JACKSON        FOG        9   5  85 N5        30.64S VSB 1   WCI   0
CODY           FAIR      22  10  60 CALM      30.38S
GREYBULL       FAIR       7   5  91 CALM      30.44S
WORLAND        FAIR      12   9  87 SW5       30.43R WCI   4
SHERIDAN       FAIR      27  11  51 CALM      30.31R
BUFFALO        FAIR      39   0  19 W6        30.32S WCI  35
GILLETTE       FAIR      33  11  39 N6        30.31R WCI  28
HULETT         FAIR      34  12  40 SW12      30.30R WCI  25
NEWCASTLE      FAIR      30   9  40 N10       30.33S WCI  21

$$
WYZ014>020-022>026-101>103-101600-
CENTRAL WYOMING

CITY           SKY/WX    TMP DP  RH WIND       PRES   REMARKS
BIG PINEY      FAIR      17   2  51 W6        30.51S WCI   9
PINEDALE       FAIR      14   3  62 E5        30.51S WCI   6
DUBOIS         FAIR      34  -6  18 N6        30.47R WCI  29
LANDER         FAIR      19   9  65 CALM      30.43S
RIVERTON       FAIR      12   9  87 CALM      30.45S
CASPER         FAIR      28  13  53 SW15      30.42R WCI  16
DOUGLAS        FAIR      23  14  68 NW6       30.39S WCI  16

$$
WYZ021-027>030-104>119-101600-
SOUTHERN WYOMING

CITY           SKY/WX    TMP DP  RH WIND       PRES   REMARKS
EVANSTON       FAIR      19   4  51 VRB3      30.57S
FORT BRIDGER   FAIR      30   0  27 W10       30.57R WCI  21
ROCK SPRINGS   FAIR      22   3  44 W9        30.51F WCI  12
DIXON          FAIR       3  -1  81 E3        30.59S
RAWLINS        FAIR      20   7  57 S3        30.51R
SARATOGA       FAIR      21   9  58 S18       30.52S WCI   6
LARAMIE        FAIR      20   6  55 S6        30.44S WCI  12
CHEYENNE       FAIR      33   2  26 CALM      30.40R
TORRINGTON     FAIR      25  13  60 NW7       30.36S WCI  17
PINE BLUFFS    FAIR      25   3  39 MISG      30.40R

$$




USA.gov is the U.S. government's official web portal to all federal, state and local government web resources and services.